iso_date,Year,Hour,Min,DOY,POS_DOY,Lat,Lon,BP,Ts,Ta,has_bp,has_ts,has_ta,BuoyID,Buoy_Type,Buoy_Owner,Logistics,Hemisphere
2022-01-05T21:02:26Z,2022,21,2,5.8767,5.8767,64.86069,-147.85064,1002.6,-21.96,-21.75,yes,yes,yes,300434063385810,SIMB3,UAF,unknown,North
2022-01-25T23:14:55Z,2022,23,14,25.9687,25.9687,71.33865,-156.40934,1033.0,-23.46,-25.56,yes,yes,yes,300434063385810,SIMB3,UAF,unknown,North
2022-01-26T00:02:35Z,2022,0,2,26.0018,26.0018,71.33866,-156.40939,1033.5,-1.96,-25.88,yes,yes,yes,300434063385810,SIMB3,UAF,unknown,North
2022-01-26T01:01:55Z,2022,1,1,26.043,26.043,71.33866,-156.40931,1034.2,-1.96,-26.25,yes,yes,yes,300434063385810,SIMB3,UAF,unknown,North
2022-01-26T02:00:57Z,2022,2,0,26.084,26.084,71.3387,-156.40939,1034.6,-1.96,-27.06,yes,yes,yes,300434063385810,SIMB3,UAF,unknown,North
2022-01-26T03:01:52Z,2022,3,1,26.1263,26.1263,71.33866,-156.40944,1035.1,-1.96,-26.88,yes,yes,yes,300434063385810,SIMB3,UAF,unknown,North
2022-01-26T04:01:46Z,2022,4,1,26.1679,26.1679,71.33865,-156.40947,1035.3,-1.94,-26.31,yes,yes,yes,300434063385810,SIMB3,UAF,unknown,North
2022-01-26T05:00:57Z,2022,5,0,26.209,26.209,71.33867,-156.40936,1035.4,-1.96,-27.19,yes,yes,yes,300434063385810,SIMB3,UAF,unknown,North
2022-01-26T06:00:51Z,2022,6,0,26.2506,26.2506,71.33865,-156.40936,1035.8,-1.96,-27.44,yes,yes,yes,300434063385810,SIMB3,UAF,unknown,North
2022-01-26T07:01:03Z,2022,7,1,26.2924,26.2924,71.33869,-156.40939,1035.9,-1.96,-27.31,yes,yes,yes,300434063385810,SIMB3,UAF,unknown,North
2022-01-26T08:02:41Z,2022,8,2,26.3352,26.3352,71.33887,-156.40891,1036.2,-1.96,-29.0,yes,yes,yes,300434063385810,SIMB3,UAF,unknown,North
2022-01-26T09:01:00Z,2022,9,1,26.3757,26.3757,71.33866,-156.40936,1036.2,-1.96,-28.25,yes,yes,yes,300434063385810,SIMB3,UAF,unknown,North
2022-01-26T10:02:12Z,2022,10,2,26.4182,26.4182,71.33867,-156.40931,1036.5,-1.96,-28.0,yes,yes,yes,300434063385810,SIMB3,UAF,unknown,North
2022-01-26T11:02:58Z,2022,11,2,26.4604,26.4604,71.3387,-156.4095,1036.6,-1.96,-27.88,yes,yes,yes,300434063385810,SIMB3,UAF,unknown,North
2022-01-26T12:01:00Z,2022,12,1,26.5007,26.5007,71.33869,-156.40947,1036.5,-1.96,-28.12,yes,yes,yes,300434063385810,SIMB3,UAF,unknown,North
2022-01-26T13:00:54Z,2022,13,0,26.5423,26.5423,71.33866,-156.40944,1036.6,-1.96,-28.81,yes,yes,yes,300434063385810,SIMB3,UAF,unknown,North
2022-01-26T14:01:06Z,2022,14,1,26.5841,26.5841,71.3387,-156.4095,1036.5,-1.96,-27.62,yes,yes,yes,300434063385810,SIMB3,UAF,unknown,North
2022-01-26T15:01:17Z,2022,15,1,26.6259,26.6259,71.33862,-156.40944,1036.4,-1.96,-28.12,yes,yes,yes,300434063385810,SIMB3,UAF,unknown,North
2022-01-26T16:01:46Z,2022,16,1,26.6679,26.6679,71.33872,-156.40936,1036.4,-1.94,-28.19,yes,yes,yes,300434063385810,SIMB3,UAF,unknown,North
2022-01-26T17:00:57Z,2022,17,0,26.709,26.709,71.33869,-156.4095,1036.2,-1.96,-28.12,yes,yes,yes,300434063385810,SIMB3,UAF,unknown,North
2022-01-26T18:00:51Z,2022,18,0,26.7506,26.7506,71.33867,-156.4095,1036.2,-1.96,-30.0,yes,yes,yes,300434063385810,SIMB3,UAF,unknown,North
2022-01-26T19:01:55Z,2022,19,1,26.793,26.793,71.33869,-156.40947,1036.2,-1.96,-30.19,yes,yes,yes,300434063385810,SIMB3,UAF,unknown,North
2022-01-26T20:00:48Z,2022,20,0,26.8339,26.8339,71.33906,-156.40914,1036.2,-1.96,-30.31,yes,yes,yes,300434063385810,SIMB3,UAF,unknown,North
2022-01-26T21:01:43Z,2022,21,1,26.8762,26.8762,71.33914,-156.40947,1036.0,-1.96,-28.25,yes,yes,yes,300434063385810,SIMB3,UAF,unknown,North
2022-01-26T22:01:46Z,2022,22,1,26.9179,26.9179,71.33866,-156.40944,1035.9,-1.96,-28.25,yes,yes,yes,300434063385810,SIMB3,UAF,unknown,North
2022-01-26T23:00:57Z,2022,23,0,26.959,26.959,71.33866,-156.40942,1035.8,-1.96,-28.31,yes,yes,yes,300434063385810,SIMB3,UAF,unknown,North
2022-01-27T00:01:00Z,2022,0,1,27.0007,27.0007,71.33867,-156.40942,1035.9,-1.94,-30.5,yes,yes,yes,300434063385810,SIMB3,UAF,unknown,North
2022-01-27T01:00:54Z,2022,1,0,27.0423,27.0423,71.33869,-156.40939,1035.6,-1.96,-30.81,yes,yes,yes,300434063385810,SIMB3,UAF,unknown,North
2022-01-27T02:00:57Z,2022,2,0,27.084,27.084,71.3387,-156.40939,1035.1,-1.96,-30.81,yes,yes,yes,300434063385810,SIMB3,UAF,unknown,North
2022-01-27T03:01:00Z,2022,3,1,27.1257,27.1257,71.33867,-156.40942,1034.9,-1.96,-30.44,yes,yes,yes,300434063385810,SIMB3,UAF,unknown,North
2022-01-27T04:01:37Z,2022,4,1,27.1678,27.1678,71.33866,-156.40939,1034.5,-1.96,-30.75,yes,yes,yes,300434063385810,SIMB3,UAF,unknown,North
2022-01-27T05:01:06Z,2022,5,1,27.2091,27.2091,71.33869,-156.40934,1034.4,-1.96,-31.31,yes,yes,yes,300434063385810,SIMB3,UAF,unknown,North
2022-01-27T06:00:51Z,2022,6,0,27.2506,27.2506,71.33866,-156.40934,1034.1,-1.9,-31.5,yes,yes,yes,300434063385810,SIMB3,UAF,unknown,North
2022-01-27T07:01:03Z,2022,7,1,27.2924,27.2924,71.33869,-156.40942,1034.0,-1.92,-31.06,yes,yes,yes,300434063385810,SIMB3,UAF,unknown,North
2022-01-27T08:01:58Z,2022,8,1,27.3347,27.3347,71.33869,-156.40931,1034.0,-1.94,-32.0,yes,yes,yes,300434063385810,SIMB3,UAF,unknown,North
2022-01-27T09:01:00Z,2022,9,1,27.3757,27.3757,71.33867,-156.40936,1033.8,-1.94,-31.19,yes,yes,yes,300434063385810,SIMB3,UAF,unknown,North
2022-01-27T10:01:46Z,2022,10,1,27.4179,27.4179,71.33866,-156.40934,1033.5,-1.94,-30.81,yes,yes,yes,300434063385810,SIMB3,UAF,unknown,North
2022-01-27T11:01:06Z,2022,11,1,27.4591,27.4591,71.33869,-156.40942,1033.4,-1.93,-31.25,yes,yes,yes,300434063385810,SIMB3,UAF,unknown,North
2022-01-27T12:01:00Z,2022,12,0,27.5007,27.5007,71.33869,-156.40947,1032.9,-1.92,-30.88,yes,yes,yes,300434063385810,SIMB3,UAF,unknown,North
2022-01-27T13:00:54Z,2022,13,0,27.5423,27.5423,71.33869,-156.40936,1032.8,-1.96,-31.5,yes,yes,yes,300434063385810,SIMB3,UAF,unknown,North
2022-01-27T14:00:57Z,2022,14,0,27.584,27.584,71.33865,-156.4095,1032.3,-1.96,-30.38,yes,yes,yes,300434063385810,SIMB3,UAF,unknown,North
2022-01-27T15:01:00Z,2022,15,1,27.6257,27.6257,71.33863,-156.40942,1032.0,-1.96,-29.81,yes,yes,yes,300434063385810,SIMB3,UAF,unknown,North
2022-01-27T16:00:54Z,2022,16,0,27.6673,27.6673,71.33869,-156.40942,1031.6,-1.96,-30.25,yes,yes,yes,300434063385810,SIMB3,UAF,unknown,North
2022-01-27T17:00:57Z,2022,17,0,27.709,27.709,71.33872,-156.40952,1031.3,-1.94,-29.56,yes,yes,yes,300434063385810,SIMB3,UAF,unknown,North
2022-01-27T18:01:00Z,2022,18,1,27.7507,27.7507,71.33865,-156.4095,1031.1,-1.96,-29.12,yes,yes,yes,300434063385810,SIMB3,UAF,unknown,North
2022-01-27T19:02:03Z,2022,19,2,27.7931,27.7931,71.33873,-156.40947,1031.2,-1.94,-28.94,yes,yes,yes,300434063385810,SIMB3,UAF,unknown,North
2022-01-27T20:01:40Z,2022,20,1,27.8345,27.8345,71.33869,-156.4095,1030.8,-1.94,-27.06,yes,yes,yes,300434063385810,SIMB3,UAF,unknown,North
2022-01-27T21:01:00Z,2022,21,1,27.8757,27.8757,71.33869,-156.4095,1030.6,-1.91,-25.31,yes,yes,yes,300434063385810,SIMB3,UAF,unknown,North
2022-01-27T22:00:54Z,2022,22,0,27.9173,27.9173,71.33865,-156.40955,1030.6,-1.94,-24.06,yes,yes,yes,300434063385810,SIMB3,UAF,unknown,North
2022-01-27T23:02:32Z,2022,23,2,27.9601,27.9601,71.33865,-156.40944,1030.3,-1.94,-22.56,yes,yes,yes,300434063385810,SIMB3,UAF,unknown,North
2022-01-28T01:01:12Z,2022,1,1,28.0425,28.0425,71.3387,-156.40944,1029.9,-1.94,-22.56,yes,yes,yes,300434063385810,SIMB3,UAF,unknown,North
2022-01-28T02:02:24Z,2022,2,2,28.085,28.085,71.33869,-156.40944,1029.7,-1.96,-22.19,yes,yes,yes,300434063385810,SIMB3,UAF,unknown,North
2022-01-28T03:01:00Z,2022,3,1,28.1257,28.1257,71.33888,-156.40955,1029.1,-1.92,-21.38,yes,yes,yes,300434063385810,SIMB3,UAF,unknown,North
2022-01-28T04:01:03Z,2022,4,1,28.1674,28.1674,71.33869,-156.40944,1028.8,-1.94,-20.69,yes,yes,yes,300434063385810,SIMB3,UAF,unknown,North
2022-01-28T05:00:57Z,2022,5,1,28.209,28.209,71.33867,-156.40934,1028.3,-1.94,-20.38,yes,yes,yes,300434063385810,SIMB3,UAF,unknown,North
2022-01-28T06:01:00Z,2022,6,1,28.2507,28.2507,71.33869,-156.40931,1028.3,-1.94,-20.31,yes,yes,yes,300434063385810,SIMB3,UAF,unknown,North
2022-01-28T07:01:03Z,2022,7,1,28.2924,28.2924,71.33869,-156.40939,1027.9,-1.96,-20.06,yes,yes,yes,300434063385810,SIMB3,UAF,unknown,North
2022-01-28T08:01:49Z,2022,8,1,28.3346,28.3346,71.33869,-156.40936,1027.9,-1.94,-20.62,yes,yes,yes,300434063385810,SIMB3,UAF,unknown,North
2022-01-28T09:01:00Z,2022,9,1,28.3757,28.3757,71.33866,-156.40939,1027.7,-1.92,-20.94,yes,yes,yes,300434063385810,SIMB3,UAF,unknown,North
2022-01-28T10:01:12Z,2022,10,1,28.4175,28.4175,71.33865,-156.40942,1027.5,-1.93,-21.94,yes,yes,yes,300434063385810,SIMB3,UAF,unknown,North
2022-01-28T11:01:58Z,2022,11,1,28.4597,28.4597,71.33867,-156.40939,1027.7,-1.94,-23.25,yes,yes,yes,300434063385810,SIMB3,UAF,unknown,North
2022-01-28T12:01:00Z,2022,12,0,28.5007,28.5007,71.33869,-156.40947,1027.3,-1.94,-23.81,yes,yes,yes,300434063385810,SIMB3,UAF,unknown,North
2022-01-28T13:00:54Z,2022,13,0,28.5423,28.5423,71.33866,-156.40952,1026.9,-1.96,-23.81,yes,yes,yes,300434063385810,SIMB3,UAF,unknown,North
2022-01-28T14:01:06Z,2022,14,1,28.5841,28.5841,71.33866,-156.40952,1027.0,-1.96,-24.62,yes,yes,yes,300434063385810,SIMB3,UAF,unknown,North
2022-01-28T15:01:00Z,2022,15,1,28.6257,28.6257,71.33862,-156.40944,1026.3,-1.93,-24.44,yes,yes,yes,300434063385810,SIMB3,UAF,unknown,North
2022-01-28T16:00:54Z,2022,16,0,28.6673,28.6673,71.33872,-156.40939,1026.0,-1.92,-24.88,yes,yes,yes,300434063385810,SIMB3,UAF,unknown,North
2022-01-28T17:03:24Z,2022,17,3,28.7107,28.7107,71.33869,-156.40952,1025.9,-1.94,-24.62,yes,yes,yes,300434063385810,SIMB3,UAF,unknown,North
2022-01-28T18:00:51Z,2022,18,0,28.7506,28.7506,71.33866,-156.4095,1025.9,-1.96,-23.31,yes,yes,yes,300434063385810,SIMB3,UAF,unknown,North
2022-01-28T19:01:46Z,2022,19,1,28.7929,28.7929,71.33869,-156.40944,1026.1,-1.94,-22.75,yes,yes,yes,300434063385810,SIMB3,UAF,unknown,North
2022-01-28T20:00:57Z,2022,20,0,28.834,28.834,71.33869,-156.40955,1026.0,-1.96,-22.81,yes,yes,yes,300434063385810,SIMB3,UAF,unknown,North
2022-01-28T21:01:00Z,2022,21,1,28.8757,28.8757,71.33869,-156.40947,1026.5,-1.96,-22.25,yes,yes,yes,300434063385810,SIMB3,UAF,unknown,North
2022-01-28T22:00:54Z,2022,22,0,28.9173,28.9173,71.33903,-156.40904,1026.7,-1.96,-21.81,yes,yes,yes,300434063385810,SIMB3,UAF,unknown,North
2022-01-28T23:02:49Z,2022,23,2,28.9603,28.9603,71.33867,-156.40939,1026.7,-1.96,-22.06,yes,yes,yes,300434063385810,SIMB3,UAF,unknown,North
2022-01-29T00:03:53Z,2022,0,3,29.0027,29.0027,71.33877,-156.40928,1027.0,-1.94,-22.81,yes,yes,yes,300434063385810,SIMB3,UAF,unknown,North
2022-01-29T01:01:03Z,2022,1,1,29.0424,29.0424,71.33869,-156.40931,1027.0,-1.96,-23.94,yes,yes,yes,300434063385810,SIMB3,UAF,unknown,North
2022-01-29T02:00:57Z,2022,2,0,29.084,29.084,71.33905,-156.40925,1027.4,-1.98,-25.06,yes,yes,yes,300434063385810,SIMB3,UAF,unknown,North
2022-01-29T03:01:00Z,2022,3,1,29.1257,29.1257,71.33867,-156.40942,1027.3,-1.96,-24.5,yes,yes,yes,300434063385810,SIMB3,UAF,unknown,North
2022-01-29T04:02:12Z,2022,4,2,29.1682,29.1682,71.33866,-156.40947,1027.5,-1.96,-22.75,yes,yes,yes,300434063385810,SIMB3,UAF,unknown,North
2022-01-29T05:00:57Z,2022,5,0,29.209,29.209,71.3387,-156.40939,1027.7,-1.96,-22.06,yes,yes,yes,300434063385810,SIMB3,UAF,unknown,North
2022-01-29T06:00:51Z,2022,6,0,29.2506,29.2506,71.33863,-156.40936,1028.0,-1.94,-21.19,yes,yes,yes,300434063385810,SIMB3,UAF,unknown,North
2022-01-29T07:01:03Z,2022,7,1,29.2924,29.2924,71.33867,-156.40939,1028.3,-1.96,-20.62,yes,yes,yes,300434063385810,SIMB3,UAF,unknown,North
2022-01-29T08:02:41Z,2022,8,2,29.3352,29.3352,71.33867,-156.40934,1028.5,-1.96,-19.94,yes,yes,yes,300434063385810,SIMB3,UAF,unknown,North
2022-01-29T09:00:51Z,2022,9,0,29.3756,29.3756,71.33866,-156.40936,1028.8,-1.96,-19.81,yes,yes,yes,300434063385810,SIMB3,UAF,unknown,North
2022-01-29T10:01:03Z,2022,10,1,29.4174,29.4174,71.33896,-156.4095,1029.2,-1.96,-19.44,yes,yes,yes,300434063385810,SIMB3,UAF,unknown,North
2022-01-29T11:04:24Z,2022,11,4,29.4614,29.4614,71.33869,-156.40944,1029.4,-1.96,-19.38,yes,yes,yes,300434063385810,SIMB3,UAF,unknown,North
2022-01-29T12:01:00Z,2022,12,1,29.5007,29.5007,71.33869,-156.40947,1029.6,-1.94,-19.31,yes,yes,yes,300434063385810,SIMB3,UAF,unknown,North
2022-01-29T13:01:03Z,2022,13,1,29.5424,29.5424,71.33867,-156.40944,1029.9,-1.96,-19.12,yes,yes,yes,300434063385810,SIMB3,UAF,unknown,North
2022-01-29T14:01:58Z,2022,14,1,29.5847,29.5847,71.33867,-156.40944,1029.9,-1.96,-19.31,yes,yes,yes,300434063385810,SIMB3,UAF,unknown,North
2022-01-29T15:01:09Z,2022,15,1,29.6258,29.6258,71.33865,-156.40942,1030.4,-1.96,-23.0,yes,yes,yes,300434063385810,SIMB3,UAF,unknown,North
2022-01-29T16:01:03Z,2022,16,1,29.6674,29.6674,71.3387,-156.40942,1030.8,-1.96,-24.56,yes,yes,yes,300434063385810,SIMB3,UAF,unknown,North
2022-01-29T17:00:48Z,2022,17,0,29.7089,29.7089,71.33866,-156.4095,1031.3,-1.96,-25.31,yes,yes,yes,300434063385810,SIMB3,UAF,unknown,North
2022-01-29T18:01:00Z,2022,18,0,29.7507,29.7507,71.33866,-156.4095,1031.3,-1.96,-25.06,yes,yes,yes,300434063385810,SIMB3,UAF,unknown,North
2022-01-29T19:01:03Z,2022,19,1,29.7924,29.7924,71.33869,-156.40958,1031.7,-1.96,-23.25,yes,yes,yes,300434063385810,SIMB3,UAF,unknown,North
2022-01-29T20:01:06Z,2022,20,1,29.8341,29.8341,71.33869,-156.40952,1032.2,-1.96,-22.56,yes,yes,yes,300434063385810,SIMB3,UAF,unknown,North
2022-01-29T21:00:51Z,2022,21,0,29.8756,29.8756,71.33867,-156.4095,1032.4,-1.96,-22.62,yes,yes,yes,300434063385810,SIMB3,UAF,unknown,North
2022-01-29T22:01:46Z,2022,22,1,29.9179,29.9179,71.33866,-156.40947,1032.7,-1.96,-22.12,yes,yes,yes,300434063385810,SIMB3,UAF,unknown,North
2022-01-29T23:05:51Z,2022,23,5,29.9624,29.9624,71.33867,-156.40944,1032.9,-1.96,-21.31,yes,yes,yes,300434063385810,SIMB3,UAF,unknown,North
2022-01-30T00:01:09Z,2022,0,1,30.0008,30.0008,71.33884,-156.40939,1032.9,-1.96,-22.56,yes,yes,yes,300434063385810,SIMB3,UAF,unknown,North
2022-01-30T01:01:03Z,2022,1,1,30.0424,30.0424,71.33903,-156.40978,1033.5,-1.94,-23.88,yes,yes,yes,300434063385810,SIMB3,UAF,unknown,North
2022-01-30T02:00:57Z,2022,2,0,30.084,30.084,71.33869,-156.40939,1033.7,-1.96,-21.62,yes,yes,yes,300434063385810,SIMB3,UAF,unknown,North
2022-01-30T03:01:00Z,2022,3,1,30.1257,30.1257,71.33867,-156.40942,1033.8,-1.96,-22.12,yes,yes,yes,300434063385810,SIMB3,UAF,unknown,North
2022-01-30T04:01:55Z,2022,4,1,30.168,30.168,71.33865,-156.40952,1033.8,-1.96,-23.12,yes,yes,yes,300434063385810,SIMB3,UAF,unknown,North
2022-01-30T05:01:49Z,2022,5,1,30.2096,30.2096,71.33867,-156.40936,1034.0,-1.96,-23.56,yes,yes,yes,300434063385810,SIMB3,UAF,unknown,North
2022-01-30T06:01:00Z,2022,6,0,30.2507,30.2507,71.33866,-156.40936,1034.0,-1.96,-22.88,yes,yes,yes,300434063385810,SIMB3,UAF,unknown,North
2022-01-30T07:01:20Z,2022,7,1,30.2926,30.2926,71.33869,-156.40939,1034.1,-1.96,-21.69,yes,yes,yes,300434063385810,SIMB3,UAF,unknown,North
2022-01-30T08:00:57Z,2022,8,1,30.334,30.334,71.33866,-156.40934,1034.5,-1.96,-20.94,yes,yes,yes,300434063385810,SIMB3,UAF,unknown,North
2022-01-30T09:01:26Z,2022,9,1,30.376,30.376,71.3387,-156.40931,1034.6,-1.96,-20.0,yes,yes,yes,300434063385810,SIMB3,UAF,unknown,North
2022-01-30T10:04:04Z,2022,10,4,30.4195,30.4195,71.33909,-156.40886,1034.8,-1.94,-19.75,yes,yes,yes,300434063385810,SIMB3,UAF,unknown,North
2022-01-30T11:01:06Z,2022,11,1,30.4591,30.4591,71.33869,-156.40942,1035.3,-1.94,-19.5,yes,yes,yes,300434063385810,SIMB3,UAF,unknown,North
2022-01-30T12:00:51Z,2022,12,0,30.5006,30.5006,71.33869,-156.40947,1035.6,-1.93,-20.5,yes,yes,yes,300434063385810,SIMB3,UAF,unknown,North
2022-01-30T13:01:03Z,2022,13,1,30.5424,30.5424,71.33869,-156.40942,1036.0,-1.94,-21.44,yes,yes,yes,300434063385810,SIMB3,UAF,unknown,North
2022-01-30T14:00:57Z,2022,14,0,30.584,30.584,71.33866,-156.40944,1036.5,-1.94,-22.5,yes,yes,yes,300434063385810,SIMB3,UAF,unknown,North
2022-01-30T15:01:00Z,2022,15,1,30.6257,30.6257,71.33865,-156.40944,1036.7,-1.96,-22.62,yes,yes,yes,300434063385810,SIMB3,UAF,unknown,North
2022-01-30T16:01:03Z,2022,16,0,30.6674,30.6674,71.33873,-156.40939,1036.9,-1.96,-22.94,yes,yes,yes,300434063385810,SIMB3,UAF,unknown,North
2022-01-30T17:00:48Z,2022,17,0,30.7089,30.7089,71.33865,-156.40952,1037.5,-1.96,-23.5,yes,yes,yes,300434063385810,SIMB3,UAF,unknown,North
2022-01-30T18:01:00Z,2022,18,1,30.7507,30.7507,71.33869,-156.40947,1038.3,-1.96,-24.5,yes,yes,yes,300434063385810,SIMB3,UAF,unknown,North
2022-01-30T19:01:20Z,2022,19,1,30.7926,30.7926,71.33872,-156.40944,1038.7,-1.96,-25.44,yes,yes,yes,300434063385810,SIMB3,UAF,unknown,North
2022-01-30T20:01:49Z,2022,20,1,30.8346,30.8346,71.33855,-156.40952,1039.5,-1.96,-26.38,yes,yes,yes,300434063385810,SIMB3,UAF,unknown,North
2022-01-30T21:01:00Z,2022,21,1,30.8757,30.8757,71.33866,-156.40952,1040.0,-1.96,-26.69,yes,yes,yes,300434063385810,SIMB3,UAF,unknown,North
2022-01-30T22:00:54Z,2022,22,0,30.9173,30.9173,71.33866,-156.40952,1040.8,-1.96,-27.44,yes,yes,yes,300434063385810,SIMB3,UAF,unknown,North
2022-01-30T23:00:57Z,2022,23,0,30.959,30.959,71.33867,-156.40944,1041.7,-1.96,-27.19,yes,yes,yes,300434063385810,SIMB3,UAF,unknown,North
2022-01-31T00:01:00Z,2022,0,1,31.0007,31.0007,71.33867,-156.40939,1041.5,-1.96,-27.5,yes,yes,yes,300434063385810,SIMB3,UAF,unknown,North
2022-01-31T01:01:03Z,2022,1,1,31.0424,31.0424,71.33869,-156.40942,1042.3,-1.96,-28.12,yes,yes,yes,300434063385810,SIMB3,UAF,unknown,North
2022-01-31T02:03:07Z,2022,2,3,31.0855,31.0855,71.33869,-156.40942,1042.9,-1.94,-27.69,yes,yes,yes,300434063385810,SIMB3,UAF,unknown,North
2022-01-31T03:02:44Z,2022,3,2,31.1269,31.1269,71.33836,-156.40944,1043.0,-1.94,-26.31,yes,yes,yes,300434063385810,SIMB3,UAF,unknown,North
2022-01-31T04:01:03Z,2022,4,1,31.1674,31.1674,71.33867,-156.40942,1043.2,-1.92,-26.69,yes,yes,yes,300434063385810,SIMB3,UAF,unknown,North
2022-01-31T05:00:57Z,2022,5,0,31.209,31.209,71.33867,-156.40936,1043.8,-1.85,-27.0,yes,yes,yes,300434063385810,SIMB3,UAF,unknown,North
2022-01-31T06:01:00Z,2022,6,1,31.2507,31.2507,71.33866,-156.40939,1044.2,-1.88,-25.94,yes,yes,yes,300434063385810,SIMB3,UAF,unknown,North
2022-01-31T07:01:03Z,2022,7,1,31.2924,31.2924,71.33867,-156.40939,1044.4,-1.94,-25.56,yes,yes,yes,300434063385810,SIMB3,UAF,unknown,North
2022-01-31T08:03:33Z,2022,8,3,31.3358,31.3358,71.33869,-156.40936,1044.8,-1.87,-26.06,yes,yes,yes,300434063385810,SIMB3,UAF,unknown,North
2022-01-31T09:01:00Z,2022,9,1,31.3757,31.3757,71.33867,-156.40934,1045.5,-1.91,-26.56,yes,yes,yes,300434063385810,SIMB3,UAF,unknown,North
2022-01-31T10:01:03Z,2022,10,1,31.4174,31.4174,71.33865,-156.40939,1045.5,-1.94,-26.69,yes,yes,yes,300434063385810,SIMB3,UAF,unknown,North
2022-01-31T11:01:49Z,2022,11,1,31.4596,31.4596,71.33867,-156.40944,1046.0,-1.96,-25.56,yes,yes,yes,300434063385810,SIMB3,UAF,unknown,North
2022-01-31T12:00:51Z,2022,12,0,31.5006,31.5006,71.33869,-156.40944,1046.1,-1.96,-25.25,yes,yes,yes,300434063385810,SIMB3,UAF,unknown,North
2022-01-31T13:00:54Z,2022,13,0,31.5423,31.5423,71.33866,-156.40952,1046.3,-1.96,-24.94,yes,yes,yes,300434063385810,SIMB3,UAF,unknown,North
2022-01-31T14:02:06Z,2022,14,2,31.5848,31.5848,71.33866,-156.40944,1046.2,-1.94,-25.5,yes,yes,yes,300434063385810,SIMB3,UAF,unknown,North
2022-01-31T15:01:00Z,2022,15,1,31.6257,31.6257,71.33867,-156.4095,1046.2,-1.89,-25.88,yes,yes,yes,300434063385810,SIMB3,UAF,unknown,North
2022-01-31T16:00:54Z,2022,16,0,31.6673,31.6673,71.33872,-156.40944,1046.4,-1.9,-27.69,yes,yes,yes,300434063385810,SIMB3,UAF,unknown,North
2022-01-31T17:01:06Z,2022,17,1,31.7091,31.7091,71.33869,-156.40947,1046.5,-1.85,-27.19,yes,yes,yes,300434063385810,SIMB3,UAF,unknown,North
2022-01-31T18:02:00Z,2022,18,2,31.7514,31.7514,71.33867,-156.40947,1046.6,-1.85,-27.25,yes,yes,yes,300434063385810,SIMB3,UAF,unknown,North
2022-01-31T19:02:47Z,2022,19,2,31.7936,31.7936,71.3387,-156.40947,1046.6,-1.81,-28.94,yes,yes,yes,300434063385810,SIMB3,UAF,unknown,North
2022-01-31T20:00:57Z,2022,20,0,31.834,31.834,71.33867,-156.40955,1046.7,-1.85,-29.44,yes,yes,yes,300434063385810,SIMB3,UAF,unknown,North
2022-01-31T21:01:00Z,2022,21,0,31.8757,31.8757,71.33867,-156.40952,1046.9,-1.83,-29.62,yes,yes,yes,300434063385810,SIMB3,UAF,unknown,North
2022-01-31T22:00:54Z,2022,22,0,31.9173,31.9173,71.33866,-156.40942,1046.9,-1.85,-28.44,yes,yes,yes,300434063385810,SIMB3,UAF,unknown,North
2022-01-31T23:01:58Z,2022,23,1,31.9597,31.9597,71.33866,-156.40944,1046.6,-1.85,-28.88,yes,yes,yes,300434063385810,SIMB3,UAF,unknown,North
2022-02-01T00:01:17Z,2022,0,1,32.0009,32.0009,71.33867,-156.40936,1046.6,-1.85,-29.19,yes,yes,yes,300434063385810,SIMB3,UAF,unknown,North
2022-02-01T01:01:03Z,2022,1,1,32.0424,32.0424,71.33869,-156.40939,1046.5,-1.83,-29.0,yes,yes,yes,300434063385810,SIMB3,UAF,unknown,North
2022-02-01T02:01:40Z,2022,2,1,32.0845,32.0845,71.33867,-156.40944,1046.2,-1.83,-29.12,yes,yes,yes,300434063385810,SIMB3,UAF,unknown,North
2022-02-01T03:01:00Z,2022,3,1,32.1257,32.1257,71.33863,-156.40942,1046.3,-1.76,-28.81,yes,yes,yes,300434063385810,SIMB3,UAF,unknown,North
2022-02-01T04:01:03Z,2022,4,1,32.1674,32.1674,71.33865,-156.40939,1046.5,-1.74,-29.31,yes,yes,yes,300434063385810,SIMB3,UAF,unknown,North
2022-02-01T05:00:57Z,2022,5,0,32.209,32.209,71.33867,-156.40934,1046.5,-1.76,-29.5,yes,yes,yes,300434063385810,SIMB3,UAF,unknown,North
2022-02-01T06:00:51Z,2022,6,0,32.2506,32.2506,71.33865,-156.40942,1046.7,-1.82,-29.94,yes,yes,yes,300434063385810,SIMB3,UAF,unknown,North
2022-02-01T07:03:47Z,2022,7,3,32.2943,32.2943,71.33866,-156.40939,1046.9,-1.85,-30.38,yes,yes,yes,300434063385810,SIMB3,UAF,unknown,North
2022-02-01T08:02:41Z,2022,8,2,32.3352,32.3352,71.33866,-156.40934,1047.1,-1.85,-31.06,yes,yes,yes,300434063385810,SIMB3,UAF,unknown,North
2022-02-01T09:00:51Z,2022,9,0,32.3756,32.3756,71.33869,-156.40939,1047.0,-1.74,-30.25,yes,yes,yes,300434063385810,SIMB3,UAF,unknown,North
2022-02-01T10:00:54Z,2022,10,0,32.4173,32.4173,71.33869,-156.40931,1047.1,-1.74,-30.44,yes,yes,yes,300434063385810,SIMB3,UAF,unknown,North
2022-02-01T11:00:57Z,2022,11,1,32.459,32.459,71.33869,-156.40944,1047.0,-1.74,-30.38,yes,yes,yes,300434063385810,SIMB3,UAF,unknown,North
2022-02-01T12:01:00Z,2022,12,1,32.5007,32.5007,71.33866,-156.40947,1047.5,-1.92,-30.88,yes,yes,yes,300434063385810,SIMB3,UAF,unknown,North
2022-02-01T13:00:54Z,2022,13,0,32.5423,32.5423,71.33865,-156.4095,1047.0,-1.85,-31.06,yes,yes,yes,300434063385810,SIMB3,UAF,unknown,North
2022-02-01T14:00:57Z,2022,14,0,32.584,32.584,71.33866,-156.40947,1047.2,-1.88,-31.62,yes,yes,yes,300434063385810,SIMB3,UAF,unknown,North
2022-02-01T15:01:00Z,2022,15,1,32.6257,32.6257,71.33869,-156.40939,1047.2,-1.89,-31.62,yes,yes,yes,300434063385810,SIMB3,UAF,unknown,North
2022-02-01T16:01:46Z,2022,16,1,32.6679,32.6679,71.33874,-156.40939,1047.2,-1.85,-31.38,yes,yes,yes,300434063385810,SIMB3,UAF,unknown,North
2022-02-01T17:00:57Z,2022,17,0,32.709,32.709,71.33867,-156.40944,1047.1,-1.85,-31.5,yes,yes,yes,300434063385810,SIMB3,UAF,unknown,North
2022-02-01T18:01:00Z,2022,18,1,32.7507,32.7507,71.33867,-156.40944,1047.1,-1.85,-32.0,yes,yes,yes,300434063385810,SIMB3,UAF,unknown,North
2022-02-01T19:01:12Z,2022,19,1,32.7925,32.7925,71.33869,-156.4095,1047.3,-1.85,-31.69,yes,yes,yes,300434063385810,SIMB3,UAF,unknown,North
2022-02-01T20:01:06Z,2022,20,1,32.8341,32.8341,71.33867,-156.40952,1047.5,-1.85,-32.0,yes,yes,yes,300434063385810,SIMB3,UAF,unknown,North
2022-02-01T21:00:51Z,2022,21,0,32.8756,32.8756,71.33866,-156.40947,1047.3,-1.82,-31.75,yes,yes,yes,300434063385810,SIMB3,UAF,unknown,North
2022-02-01T22:01:46Z,2022,22,1,32.9179,32.9179,71.33869,-156.4095,1046.9,-1.74,-31.25,yes,yes,yes,300434063385810,SIMB3,UAF,unknown,North
2022-02-01T23:02:32Z,2022,23,2,32.9601,32.9601,71.33867,-156.40947,1047.0,-1.74,-31.0,yes,yes,yes,300434063385810,SIMB3,UAF,unknown,North
2022-02-02T00:01:00Z,2022,0,1,33.0007,33.0007,71.33865,-156.40939,1046.9,-1.8,-30.81,yes,yes,yes,300434063385810,SIMB3,UAF,unknown,North
2022-02-02T01:00:54Z,2022,1,0,33.0423,33.0423,71.33867,-156.40942,1046.6,-1.81,-31.31,yes,yes,yes,300434063385810,SIMB3,UAF,unknown,North
2022-02-02T02:00:57Z,2022,2,0,33.084,33.084,71.3387,-156.40944,1046.1,-1.83,-31.5,yes,yes,yes,300434063385810,SIMB3,UAF,unknown,North
2022-02-02T03:01:00Z,2022,3,1,33.1257,33.1257,71.33869,-156.40944,1046.3,-1.83,-31.94,yes,yes,yes,300434063385810,SIMB3,UAF,unknown,North